EW7772 Weather Reports


time (UTC)temp
F
wind
direction
speed
knots
gust
knots
rain 1hr
in
rain 24hr
in
rain mn
in
humidity
%
barometer
mb
20260506110001 62 286 0.0 0.9 0.00 0.09 0.00 68 1006.0
20260506104559 62 286 0.0 0.9 0.00 0.09 0.00 70 1006.2
20260506103059 62 286 0.0 0.9 0.00 0.09 0.00 68 1006.3
20260506101601 61 286 0.0 1.7 0.00 0.09 0.00 70 1006.4
20260506100114 61 286 0.0 0.9 0.00 0.09 0.00 70 1006.4
20260506094552 61 286 0.0 0.9 0.00 0.09 0.00 72 1006.5
20260506093051 61 286 0.0 1.7 0.00 0.09 0.00 70 1006.4
20260506091548 60 287 0.0 1.7 0.00 0.09 0.00 71 1006.4
20260506090048 60 284 0.0 1.7 0.00 0.09 0.00 71 1006.5
20260506084610 60 267 0.0 0.9 0.00 0.09 0.00 73 1006.4
20260506083044 59 115 0.0 0.0 0.00 0.09 0.00 74 1006.5
20260506081546 58 115 0.0 0.0 0.00 0.09 0.00 76 1006.6
20260506073041 56 115 0.0 0.0 0.00 0.09 0.00 83 1006.7
20260506071531 55 117 0.0 0.9 0.00 0.09 0.00 85 1006.7
20260506061522 51 128 0.0 0.9 0.00 0.09 0.00 92 1006.5
20260506044547 47 300 0.0 0.0 0.00 0.09 0.00 96 1006.9
20260506043015 46 279 0.0 0.0 0.00 0.09 0.00 96 1007.0
20260506041515 46 279 0.0 0.0 0.00 0.09 0.00 96 1007.0
20260506040014 46 279 0.0 0.0 0.00 0.09 0.00 96 1007.1
20260506034532 46 279 0.0 0.0 0.00 0.09 0.00 96 1007.2
20260506033011 46 279 0.0 0.0 0.00 0.09 0.00 95 1007.3
20260506031511 45 279 0.0 0.0 0.00 0.09 0.00 95 1007.4
20260506030011 46 279 0.0 0.0 0.00 0.09 0.00 95 1007.4
20260506024509 46 279 0.0 0.0 0.00 0.09 0.00 95 1007.3
20260506023006 46 279 0.0 0.0 0.00 0.09 0.00 95 1007.4
20260506021505 47 279 0.0 0.0 0.00 0.09 0.00 95 1007.5
20260506020004 47 279 0.0 0.0 0.00 0.09 0.00 95 1007.7
20260506014504 47 279 0.0 0.0 0.00 0.09 0.00 95 1007.9
20260506013003 47 278 0.0 0.0 0.00 0.09 0.00 95 1008.0
20260506011502 47 278 0.0 0.0 0.00 0.09 0.00 94 1007.7
20260506010104 48 278 0.0 0.0 0.00 0.09 0.00 95 1007.7
20260506004626 48 278 0.0 0.0 0.00 0.09 0.00 95 1007.7
20260506003110 48 278 0.0 0.0 0.00 0.09 0.00 94 1007.8
20260506001556 48 278 0.0 0.0 0.00 0.09 0.00 94 1008.2
20260506000051 49 278 0.0 0.0 0.00 0.09 0.00 94 1008.1
20260505234614 49 278 0.0 0.0 0.00 0.09 0.00 94 1008.4
20260505233049 50 278 0.0 0.0 0.00 0.09 0.00 94 1008.4
20260505231547 50 278 0.0 0.0 0.00 0.09 0.00 94 1008.4
20260505230045 51 278 0.0 0.0 0.00 0.09 0.00 94 1008.3
20260505224546 51 278 0.0 0.0 0.00 0.09 0.00 94 1008.4
20260505223042 51 278 0.0 0.0 0.00 0.09 0.00 94 1008.3
20260505221539 52 278 0.0 0.0 0.00 0.09 0.00 94 1008.2
20260505220054 52 278 0.0 0.0 0.00 0.09 0.00 94 1008.1
20260505214540 53 278 0.0 0.0 0.00 0.09 0.09 93 1008.2
20260505213035 54 278 0.0 0.0 0.00 0.09 0.09 94 1008.2
20260505211542 53 278 0.0 0.0 0.01 0.09 0.09 94 1008.3
20260505210034 54 278 0.0 0.0 0.01 0.09 0.09 93 1008.3
20260505204535 54 278 0.0 0.0 0.01 0.09 0.09 93 1008.2
20260505203033 54 278 0.0 0.0 0.01 0.09 0.09 93 1008.0
20260505201535 55 278 0.0 0.0 0.00 0.08 0.08 93 1007.8
20260505200034 55 278 0.0 0.0 0.00 0.08 0.08 93 1007.6
20260505194536 55 278 0.0 0.0 0.00 0.08 0.08 92 1007.5
20260505193039 55 278 0.0 0.0 0.00 0.08 0.08 91 1007.5
20260505191546 56 278 0.0 0.0 0.00 0.08 0.08 91 1007.4
20260505190033 56 278 0.0 0.0 0.01 0.08 0.08 90 1007.2
20260505184531 57 278 0.0 0.0 0.01 0.08 0.08 89 1007.2
20260505183030 58 278 0.0 0.0 0.01 0.08 0.08 87 1007.3
20260505181528 58 278 0.0 0.0 0.01 0.08 0.08 84 1007.3
20260505180041 58 278 0.0 0.0 0.00 0.07 0.07 82 1007.2
20260505174536 58 278 0.0 0.0 0.00 0.07 0.07 82 1007.1
20260505173026 58 278 0.0 0.0 0.00 0.07 0.07 80 1007.0
20260505171531 59 278 0.0 0.0 0.00 0.07 0.07 80 1006.9
20260505170028 59 278 0.0 0.0 0.00 0.07 0.07 79 1006.9
20260505164525 60 278 0.0 0.0 0.00 0.07 0.07 79 1006.9
20260505163025 60 278 0.0 0.0 0.00 0.07 0.07 80 1006.8
20260505161524 60 278 0.0 0.0 0.00 0.07 0.07 82 1006.8
20260505153026 60 277 0.0 1.7 0.00 0.07 0.07 83 1007.0
20260505151523 58 270 0.0 1.7 0.00 0.07 0.07 87 1007.2
20260505124518 65 295 0.0 1.7 0.00 0.00 0.00 68 1007.0
20260505123016 66 299 0.9 2.6 0.00 0.00 0.00 64 1006.9
20260505121517 67 275 0.0 2.6 0.00 0.00 0.00 62 1006.8
20260505120017 67 290 0.0 2.6 0.00 0.00 0.00 62 1006.8
20260505114515 67 289 0.0 0.9 0.00 0.00 0.00 62 1006.8
20260505113017 67 286 0.0 1.7 0.00 0.00 0.00 62 1006.7
20260505111514 67 286 0.0 0.9 0.00 0.00 0.00 62 1006.8